Find Starlink 33558

NORAD ID: 63643 Int'l Des: 2025-083 Owner: SPXS Country: US Constellation: starlink operational
LEOCIRCULAR

Current View

Loading 3D Globe...

About Starlink 33558

Starlink 33558 (NORAD 63643) is a starlink constellation satellite (v2 mini) launched Apr 25, 2025 by SPXS of US. It operates in LEO, CIRCULAR orbit with a mass of 575.00 kg.

About Starlink 33558

Description loading...

Upcoming Passes

Passes for default location (London). Set your location on the main map for personalized predictions.

Altitude History

Loading altitude history...

Two-Line Element Set

1 63643U 25083K 26169.99761054 .00016494 00000-0 60739-3 0 9997
2 63643 42.9994 152.8138 0001049 255.3745 104.6990 15.27588765 65569
Epoch: Jun 18, 2026 • Age: 14 hours

Current Status

Altitude 486.3 km
Velocity 7.63 km/s
Sub-Earth Point 40.89°N, 93.27°E
Launch Date Apr 25, 2025
Age 1.1 years
Type internet

Technical Details

Classification Payload
Mass 575.00 kg
Dry Mass 530.00 kg
Total Mass 575.00 kg
Length 0.30 m
Diameter 4.10 m
Span 29.00 m
Shape Box + pan
Manufacturer SPXS
Bus Type Starlink V2MO
Phase Status In Orbit
Owner/State SPXS/US

Most Searched